2021-01-12 00:07:43 r, 18.25m,0000000004Hz,0000108754c,0000000.236s, 009.0C,00002191
2021-01-12 00:17:43 r, 17.98m,0000000005Hz,0000084951c,0000000.184s, 009.0C,00002191
2021-01-12 00:27:44 r, 17.72m,0000000007Hz,0000067053c,0000000.146s, 009.0C,00002191
2021-01-12 00:37:45 r, 17.54m,0000000008Hz,0000056724c,0000000.123s, 009.0C,00002191
2021-01-12 00:47:43 r, 17.50m,0000000009Hz,0000054723c,0000000.119s, 009.0C,00002191
2021-01-12 00:57:45 r, 17.54m,0000000008Hz,0000056333c,0000000.122s, 009.0C,00002191
2021-01-12 01:07:43 r, 17.56m,0000000008Hz,0000057835c,0000000.126s, 009.0C,00002191
2021-01-12 01:17:43 r, 17.85m,0000000006Hz,0000074999c,0000000.163s, 009.0C,00002191
2021-01-12 01:27:45 r, 17.96m,0000000006Hz,0000083333c,0000000.181s, 009.0C,00002191
2021-01-12 01:37:44 r, 18.27m,0000000004Hz,0000110303c,0000000.239s, 009.0C,00002191
2021-01-12 01:47:43 r, 18.43m,0000000004Hz,0000129288c,0000000.281s, 008.7C,00002191
2021-01-12 01:57:44 r, 18.43m,0000000004Hz,0000128531c,0000000.279s, 008.7C,00002191
2021-01-12 02:07:44 r, 18.25m,0000000004Hz,0000109524c,0000000.238s, 008.3C,00002191
2021-01-12 02:17:43 r, 18.57m,0000000004Hz,0000146440c,0000000.318s, 008.3C,00002191
2021-01-12 02:27:44 r, 20.16m,0000000001Hz,0000631634c,0000001.371s, 008.0C,00002191
2021-01-12 02:37:43 r, 20.38m,0000000000Hz,0000774028c,0000001.680s, 007.7C,00002191
2021-01-12 02:47:43 r, 20.42m,0000000000Hz,0000802095c,0000001.741s, 007.4C,00002191
2021-01-12 02:57:43 r, 20.45m,0000000000Hz,0000820514c,0000001.781s, 007.4C,00002191
2021-01-12 03:07:45 r, 20.45m,0000000001Hz,0000825519c,0000001.791s, 007.0C,00002191
2021-01-12 03:17:43 r, 20.46m,0000000000Hz,0000831156c,0000001.804s, 007.0C,00002191
2021-01-12 03:27:45 r, 20.47m,0000000000Hz,0000838675c,0000001.820s, 006.7C,00002191
2021-01-12 03:37:43 r, 20.47m,0000000001Hz,0000838170c,0000001.819s, 006.7C,00002191
2021-01-12 03:47:43 r, 20.47m,0000000001Hz,0000836101c,0000001.814s, 006.7C,00002191
2021-01-12 03:57:45 r, 20.46m,0000000001Hz,0000833192c,0000001.808s, 006.7C,00002191
2021-01-12 04:07:43 r, 20.47m,0000000000Hz,0000835665c,0000001.814s, 006.7C,00002191
2021-01-12 04:17:43 r, 20.46m,0000000001Hz,0000834269c,0000001.810s, 006.7C,00002191
2021-01-12 04:27:43 r, 20.46m,0000000001Hz,0000832902c,0000001.808s, 006.7C,00002191
2021-01-12 04:37:45 r, 20.45m,0000000000Hz,0000825574c,0000001.792s, 006.4C,00002191
2021-01-12 04:47:43 r, 20.45m,0000000001Hz,0000820913c,0000001.781s, 006.4C,00002191
2021-01-12 04:57:44 r, 20.44m,0000000001Hz,0000815219c,0000001.769s, 006.4C,00002191
2021-01-12 05:07:43 r, 20.43m,0000000001Hz,0000806178c,0000001.750s, 006.4C,00002191
2021-01-12 05:17:43 r, 20.38m,0000000000Hz,0000768772c,0000001.668s, 006.4C,00002191
2021-01-12 05:27:45 r, 20.41m,0000000001Hz,0000795450c,0000001.726s, 006.4C,00002191
2021-01-12 05:37:43 r, 20.42m,0000000001Hz,0000800842c,0000001.738s, 006.1C,00002191
2021-01-12 05:47:43 r, 20.41m,0000000001Hz,0000797897c,0000001.732s, 005.8C,00002191
2021-01-12 05:57:45 r, 20.42m,0000000000Hz,0000799041c,0000001.734s, 005.8C,00002191
2021-01-12 06:07:43 r, 20.41m,0000000001Hz,0000796435c,0000001.728s, 005.4C,00002191
2021-01-12 06:17:43 r, 20.39m,0000000000Hz,0000782325c,0000001.698s, 005.4C,00002191
2021-01-12 06:27:43 r, 20.38m,0000000001Hz,0000770719c,0000001.673s, 005.4C,00002191
2021-01-12 06:37:44 r, 20.34m,0000000000Hz,0000743862c,0000001.614s, 005.4C,00002191
2021-01-12 06:47:43 r, 20.21m,0000000000Hz,0000662563c,0000001.438s, 005.4C,00002191
2021-01-12 06:57:44 r, 19.88m,0000000001Hz,0000483768c,0000001.050s, 005.4C,00002191
2021-01-12 07:07:43 r, 19.11m,0000000002Hz,0000242042c,0000000.525s, 005.1C,00002191
2021-01-12 07:17:42 r, 18.02m,0000000005Hz,0000088280c,0000000.192s, 005.1C,00002191
2021-01-12 07:27:43 r, 16.59m,0000000019Hz,0000023789c,0000000.052s, 005.1C,00002191
2021-01-12 07:37:45 r, 14.86m,0000000095Hz,0000004817c,0000000.010s, 004.8C,00002191
2021-01-12 07:47:42 r, 12.92m,0000000574Hz,0000000000c,0000000.000s, 004.5C,00002191
2021-01-12 07:57:45 r, 11.04m,0000003262Hz,0000000000c,0000000.000s, 004.5C,00002191
2021-01-12 08:07:43 r, 09.43m,0000014231Hz,0000000000c,0000000.000s, 004.5C,00002191
2021-01-12 08:17:43 r, 08.18m,0000045179Hz,0000000000c,0000000.000s, 004.8C,00002191
2021-01-12 08:27:43 r, 07.37m,0000095605Hz,0000000000c,0000000.000s, 004.8C,00002191
2021-01-12 08:37:43 r, 06.71m,0000175783Hz,0000000000c,0000000.000s, 004.8C,00002191
2021-01-12 08:47:42 r, 06.19m,0000283640Hz,0000000000c,0000000.000s, 005.1C,00002191
2021-01-12 08:57:43 r, 05.87m,0000378079Hz,0000000000c,0000000.000s, 005.1C,00002191
2021-01-12 09:07:44 r, 00.00m,0000475465Hz,0000000000c,0000000.000s, 005.8C,00002191
2021-01-12 09:17:42 r, 00.00m,0000551507Hz,0000000000c,0000000.000s, 006.7C,00002191
2021-01-12 09:27:43 r, 00.00m,0000598680Hz,0000000000c,0000000.000s, 007.4C,00002191
2021-01-12 09:37:45 r, 00.00m,0000598554Hz,0000000000c,0000000.000s, 008.3C,00002191
2021-01-12 09:47:43 r, 00.00m,0000598607Hz,0000000000c,0000000.000s, 009.0C,00002191
2021-01-12 09:57:43 r, 00.00m,0000598442Hz,0000000000c,0000000.000s, 009.9C,00002191
2021-01-12 10:07:45 r, 00.00m,0000598477Hz,0000000000c,0000000.000s, 010.3C,00002191
2021-01-12 10:17:43 r, 00.00m,0000598501Hz,0000000000c,0000000.000s, 009.9C,00002191
2021-01-12 10:27:43 r, 00.00m,0000598447Hz,0000000000c,0000000.000s, 009.6C,00002191
2021-01-12 10:37:44 r, 00.00m,0000598424Hz,0000000000c,0000000.000s, 009.9C,00002191
2021-01-12 10:47:43 r, 00.00m,0000598287Hz,0000000000c,0000000.000s, 010.6C,00002191
2021-01-12 10:57:43 r, 00.00m,0000598204Hz,0000000000c,0000000.000s, 011.9C,00002191
2021-01-12 11:07:43 r, 00.00m,0000598004Hz,0000000000c,0000000.000s, 013.2C,00002191
2021-01-12 11:17:43 r, 00.00m,0000597939Hz,0000000000c,0000000.000s, 013.8C,00002191
2021-01-12 11:27:42 r, 00.00m,0000598023Hz,0000000000c,0000000.000s, 013.8C,00002191
2021-01-12 11:37:44 r, 00.00m,0000598005Hz,0000000000c,0000000.000s, 013.8C,00002191
2021-01-12 11:47:42 r, 00.00m,0000598060Hz,0000000000c,0000000.000s, 013.5C,00002191
2021-01-12 11:57:42 r, 00.00m,0000598100Hz,0000000000c,0000000.000s, 013.8C,00002191
2021-01-12 12:07:45 r, 00.00m,0000598035Hz,0000000000c,0000000.000s, 014.1C,00002191
2021-01-12 12:17:42 r, 00.00m,0000598015Hz,0000000000c,0000000.000s, 014.1C,00002191
2021-01-12 12:27:43 r, 00.00m,0000598023Hz,0000000000c,0000000.000s, 013.8C,00002191
2021-01-12 12:37:45 r, 00.00m,0000598084Hz,0000000000c,0000000.000s, 013.5C,00002191
2021-01-12 12:47:42 r, 00.00m,0000597940Hz,0000000000c,0000000.000s, 013.8C,00002191
2021-01-12 12:57:43 r, 00.00m,0000598038Hz,0000000000c,0000000.000s, 013.8C,00002191
2021-01-12 13:07:43 r, 00.00m,0000598082Hz,0000000000c,0000000.000s, 013.8C,00002191
2021-01-12 13:17:43 r, 00.00m,0000598067Hz,0000000000c,0000000.000s, 014.1C,00002191
2021-01-12 13:27:42 r, 00.00m,0000598030Hz,0000000000c,0000000.000s, 014.1C,00002191
2021-01-12 13:37:44 r, 00.00m,0000597964Hz,0000000000c,0000000.000s, 014.1C,00002191
2021-01-12 13:47:42 r, 00.00m,0000597919Hz,0000000000c,0000000.000s, 014.8C,00002191
2021-01-12 13:57:43 r, 00.00m,0000598009Hz,0000000000c,0000000.000s, 014.8C,00002191
2021-01-12 14:07:45 r, 00.00m,0000597918Hz,0000000000c,0000000.000s, 014.8C,00002191
2021-01-12 14:17:43 r, 00.00m,0000597982Hz,0000000000c,0000000.000s, 014.8C,00002191
2021-01-12 14:27:43 r, 00.00m,0000597996Hz,0000000000c,0000000.000s, 014.1C,00002191
2021-01-12 14:37:45 r, 00.00m,0000598071Hz,0000000000c,0000000.000s, 013.5C,00002191
2021-01-12 14:47:43 r, 00.00m,0000598145Hz,0000000000c,0000000.000s, 013.2C,00002191
2021-01-12 14:57:42 r, 00.00m,0000598208Hz,0000000000c,0000000.000s, 013.2C,00002191
2021-01-12 15:07:43 r, 00.00m,0000598257Hz,0000000000c,0000000.000s, 013.2C,00002191
2021-01-12 15:17:44 r, 00.00m,0000598255Hz,0000000000c,0000000.000s, 012.8C,00002191
2021-01-12 15:27:42 r, 00.00m,0000598256Hz,0000000000c,0000000.000s, 012.5C,00002191
2021-01-12 15:37:44 r, 00.00m,0000598225Hz,0000000000c,0000000.000s, 012.5C,00002191
2021-01-12 15:47:43 r, 00.00m,0000598173Hz,0000000000c,0000000.000s, 012.5C,00002191
2021-01-12 15:57:42 r, 00.00m,0000598138Hz,0000000000c,0000000.000s, 013.2C,00002191
2021-01-12 16:07:43 r, 00.00m,0000598238Hz,0000000000c,0000000.000s, 013.8C,00002191
2021-01-12 16:17:45 r, 00.00m,0000460479Hz,0000000000c,0000000.000s, 014.1C,00002191
2021-01-12 16:27:42 r, 05.90m,0000368229Hz,0000000000c,0000000.000s, 013.8C,00002191
2021-01-12 16:37:45 r, 06.47m,0000218017Hz,0000000000c,0000000.000s, 013.5C,00002191
2021-01-12 16:47:43 r, 07.29m,0000102806Hz,0000000000c,0000000.000s, 013.2C,00002191
2021-01-12 16:57:43 r, 08.35m,0000038801Hz,0000000000c,0000000.000s, 012.5C,00002191
2021-01-12 17:07:45 r, 09.67m,0000011486Hz,0000000000c,0000000.000s, 012.2C,00002191
2021-01-12 17:17:43 r, 11.37m,0000002396Hz,0000000000c,0000000.000s, 011.9C,00002191
2021-01-12 17:27:42 r, 13.33m,0000000395Hz,0000000000c,0000000.000s, 010.9C,00002191
2021-01-12 17:37:43 r, 15.35m,0000000061Hz,0000007552c,0000000.016s, 010.6C,00002191
2021-01-12 17:47:44 r, 17.11m,0000000012Hz,0000038249c,0000000.083s, 009.9C,00002191
2021-01-12 17:57:42 r, 18.50m,0000000003Hz,0000137117c,0000000.298s, 009.3C,00002191
2021-01-12 18:07:44 r, 19.50m,0000000001Hz,0000345647c,0000000.750s, 009.0C,00002191
2021-01-12 18:17:43 r, 20.04m,0000000001Hz,0000565763c,0000001.228s, 008.3C,00002191
2021-01-12 18:27:42 r, 20.22m,0000000000Hz,0000669237c,0000001.452s, 007.7C,00002191
2021-01-12 18:37:43 r, 20.26m,0000000000Hz,0000691278c,0000001.500s, 007.7C,00002191
2021-01-12 18:47:45 r, 20.27m,0000000000Hz,0000700123c,0000001.519s, 007.4C,00002191
2021-01-12 18:57:42 r, 20.26m,0000000000Hz,0000696279c,0000001.511s, 007.4C,00002191
2021-01-12 19:07:45 r, 20.26m,0000000000Hz,0000690372c,0000001.498s, 007.0C,00002191
2021-01-12 19:17:43 r, 20.26m,0000000001Hz,0000693366c,0000001.505s, 006.7C,00002191
2021-01-12 19:27:42 r, 20.26m,0000000000Hz,0000690398c,0000001.498s, 006.4C,00002191
2021-01-12 19:37:45 r, 20.26m,0000000000Hz,0000688452c,0000001.494s, 006.4C,00002191
2021-01-12 19:47:43 r, 20.26m,0000000001Hz,0000692193c,0000001.502s, 006.4C,00002191
2021-01-12 19:57:42 r, 20.26m,0000000001Hz,0000691660c,0000001.501s, 006.4C,00002191
2021-01-12 20:07:43 r, 20.26m,0000000001Hz,0000692447c,0000001.503s, 006.4C,00002191
2021-01-12 20:17:45 r, 20.26m,0000000001Hz,0000689534c,0000001.496s, 006.4C,00002191
2021-01-12 20:27:42 r, 20.28m,0000000000Hz,0000700762c,0000001.521s, 006.4C,00002191
2021-01-12 20:37:44 r, 20.24m,0000000001Hz,0000675857c,0000001.467s, 006.7C,00002191
2021-01-12 20:47:43 r, 19.97m,0000000001Hz,0000531830c,0000001.154s, 006.7C,00002191
2021-01-12 20:57:43 r, 19.84m,0000000001Hz,0000469666c,0000001.019s, 007.0C,00002191
2021-01-12 21:07:45 r, 19.86m,0000000001Hz,0000475491c,0000001.032s, 007.0C,00002191
2021-01-12 21:17:43 r, 19.82m,0000000001Hz,0000460038c,0000000.998s, 006.7C,00002191
2021-01-12 21:27:42 r, 19.77m,0000000001Hz,0000443543c,0000000.963s, 006.7C,00002191
2021-01-12 21:37:45 r, 19.94m,0000000001Hz,0000513220c,0000001.114s, 006.4C,00002191
2021-01-12 21:47:43 r, 19.96m,0000000000Hz,0000528073c,0000001.146s, 006.1C,00002191
2021-01-12 21:57:42 r, 20.10m,0000000001Hz,0000598390c,0000001.299s, 006.1C,00002191
2021-01-12 22:07:43 r, 20.16m,0000000001Hz,0000633426c,0000001.375s, 006.1C,00002191
2021-01-12 22:17:44 r, 20.13m,0000000001Hz,0000613525c,0000001.331s, 005.8C,00002191
2021-01-12 22:27:42 r, 20.10m,0000000001Hz,0000598017c,0000001.298s, 005.8C,00002191
2021-01-12 22:37:44 r, 20.10m,0000000001Hz,0000599353c,0000001.301s, 005.4C,00002191
2021-01-12 22:47:43 r, 20.07m,0000000001Hz,0000578949c,0000001.256s, 005.4C,00002191
2021-01-12 22:57:42 r, 20.09m,0000000000Hz,0000590381c,0000001.281s, 005.4C,00002191
2021-01-12 23:07:43 r, 20.07m,0000000001Hz,0000583042c,0000001.265s, 005.1C,00002191
2021-01-12 23:17:45 r, 19.86m,0000000001Hz,0000477524c,0000001.036s, 005.1C,00002191
2021-01-12 23:27:42 r, 19.79m,0000000001Hz,0000449286c,0000000.975s, 004.8C,00002191
2021-01-12 23:37:45 r, 19.94m,0000000001Hz,0000514857c,0000001.117s, 004.8C,00002191
2021-01-12 23:47:43 r, 19.87m,0000000001Hz,0000481148c,0000001.044s, 004.8C,00002191
2021-01-12 23:57:42 r, 19.79m,0000000001Hz,0000447506c,0000000.971s, 004.8C,00002191
